1514613601.18,45976,4.63,72210.0,-17.93,-18.89,-18.79,0,*6A
1514613602.42,45977,4.63,72204.3,-17.93,-18.83,-18.83,0,*64
1514613603.65,45978,4.56,72204.8,-17.93,-18.83,-18.83,0,*6B
1514613604.89,45979,4.63,72208.3,-17.93,-18.83,-18.79,0,*6F
1514613606.12,45980,4.63,72208.3,-17.93,-18.83,-18.79,0,*69
1514613607.35,45981,4.63,72210.8,-17.95,-18.89,-18.83,0,*61
1514613608.61,45982,4.63,72210.8,-17.95,-18.89,-18.89,0,*68
1514613609.84,45983,4.63,72212.5,-17.93,-18.83,-18.83,0,*6F
1514613611.08,45984,4.63,72218.0,-17.93,-18.83,-18.83,0,*68
1514613612.31,45985,4.63,72216.0,-17.93,-18.83,-18.83,0,*69
1514613613.55,45986,4.63,72216.3,-17.93,-18.83,-18.83,0,*6A
1514613614.78,45987,4.63,72214.0,-17.93,-18.83,-18.83,0,*6B
1514613616.02,45988,4.63,72214.8,-17.93,-18.83,-18.79,0,*61
1514613617.25,45989,4.56,72210.3,-17.93,-18.83,-18.79,0,*60
1514613618.48,45990,4.63,72214.3,-17.93,-18.79,-18.83,0,*68
1514613619.74,45991,4.63,72210.0,-17.93,-18.83,-18.89,0,*66
1514613621.0,45992,4.56,72208.3,-17.95,-18.89,-18.89,0,*69
1514613622.26,45993,4.56,72212.3,-17.93,-18.89,-18.79,0,*61
1514613623.49,45994,4.63,72214.3,-17.93,-18.83,-18.83,0,*69
1514613624.73,45995,4.63,72212.5,-17.93,-18.83,-18.79,0,*6D
1514613625.96,45996,4.63,72212.8,-17.93,-18.83,-18.83,0,*6B
1514613627.22,45997,4.63,72212.5,-17.95,-18.89,-18.89,0,*6C
1514613628.47,45998,4.63,72212.3,-17.95,-18.89,-18.89,0,*63
1514613629.73,45999,4.63,72208.5,-17.95,-18.89,-18.89,0,*62
1514613630.97,46000,4.56,72208.0,-17.93,-18.83,-18.83,0,*6E
1514613632.2,46001,4.63,72214.0,-17.93,-18.83,-18.83,0,*6F
1514613633.44,46002,4.63,72214.8,-17.93,-18.83,-18.79,0,*69
1514613634.69,46003,4.63,72214.0,-17.95,-18.89,-18.89,0,*6B
1514613635.95,46004,4.56,72212.0,-17.95,-18.89,-18.89,0,*6C
1514613637.19,46005,4.63,72218.8,-17.93,-18.83,-18.83,0,*6B
1514613638.44,46006,4.63,72218.5,-17.95,-18.89,-18.89,0,*6E
1514613639.7,46007,4.63,72216.8,-17.93,-18.89,-18.83,0,*63
1514613640.95,46008,4.63,72218.0,-17.93,-18.89,-18.83,0,*6C
1514613642.19,46009,4.56,72216.0,-17.95,-18.93,-18.83,0,*60
1514613643.43,46010,4.56,72216.8,-17.95,-18.93,-18.83,0,*68
1514613644.69,46011,4.63,72214.5,-17.95,-18.89,-18.89,0,*68
1514613645.92,46012,4.63,72212.3,-17.93,-18.83,-18.83,0,*6D
1514613647.15,46013,4.63,72212.3,-17.93,-18.83,-18.83,0,*6C
1514613648.42,46014,4.63,72212.5,-17.95,-18.93,-18.89,0,*66
1514613649.68,46015,4.56,72214.8,-17.95,-18.89,-18.89,0,*6C
1514613650.93,46016,4.63,72214.8,-17.93,-18.89,-18.83,0,*63
1514613652.19,46017,4.63,72214.0,-17.95,-18.89,-18.89,0,*6E
1514613653.45,46018,4.63,72210.8,-17.95,-18.89,-18.89,0,*61
1514613654.7,46019,4.63,72212.0,-17.95,-18.89,-18.89,0,*60
1514613655.94,46020,4.56,72210.8,-17.93,-18.83,-18.79,0,*69
1514613657.18,46021,4.63,72208.3,-17.95,-18.83,-18.89,0,*61
1514613658.43,46022,4.56,72208.8,-17.95,-18.89,-18.89,0,*68
1514613659.67,46023,4.63,72210.0,-17.93,-18.79,-18.83,0,*6A
1514613660.92,46024,4.56,72210.8,-17.93,-18.89,-18.83,0,*62
1514613662.15,46025,4.63,72212.5,-17.95,-18.89,-18.83,0,*65
1514613663.39,46026,4.63,72214.3,-17.93,-18.83,-18.83,0,*6A
1514613664.64,46027,4.63,72214.3,-17.95,-18.89,-18.89,0,*6D
1514613665.88,46028,4.56,72206.8,-17.93,-18.83,-18.79,0,*61
1514613667.14,46029,4.63,72206.0,-17.95,-18.89,-18.89,0,*63
1514613668.37,46030,4.63,72204.3,-17.93,-18.83,-18.83,0,*6D
1514613669.63,46031,4.56,72202.0,-17.95,-18.89,-18.89,0,*6A
1514613670.89,46032,4.63,72202.0,-17.95,-18.89,-18.89,0,*69
1514613672.14,46033,4.56,72202.3,-17.95,-18.89,-18.89,0,*68
1514613673.38,46034,4.63,72204.3,-17.93,-18.83,-18.83,0,*69
1514613674.64,46035,4.56,72206.0,-17.95,-18.89,-18.89,0,*6E
1514613675.89,46036,4.56,72210.5,-17.93,-18.89,-18.83,0,*61
1514613677.15,46037,4.63,72214.0,-17.95,-18.93,-18.89,0,*67
1514613678.42,46038,4.63,72214.0,-17.95,-18.93,-18.89,0,*68
1514613679.66,46039,4.63,72212.0,-17.95,-19.03,-18.93,0,*6A
1514613680.93,46040,4.63,72208.5,-17.95,-18.93,-18.93,0,*6C
1514613682.2,46041,4.63,72208.3,-17.95,-18.93,-18.93,0,*6D
1514613683.46,46042,4.56,72206.8,-17.95,-18.93,-18.93,0,*6E
1514613684.7,46043,4.63,72210.0,-17.95,-18.93,-19.03,0,*67
1514613685.94,46044,4.56,72206.0,-17.95,-19.03,-18.93,0,*60
1514613687.18,46045,4.56,72206.3,-17.95,-19.03,-18.93,0,*61
1514613688.46,46046,4.63,72208.8,-17.93,-18.89,-18.89,0,*6C
1514613689.7,46047,4.63,72208.0,-17.95,-19.03,-18.93,0,*63
1514613690.94,46048,4.63,72206.3,-17.95,-18.93,-19.03,0,*6C
1514613692.18,46049,4.56,72206.5,-17.95,-19.03,-18.93,0,*6D
1514613693.39,46050,4.56,72208.0,-17.95,-19.03,-19.03,0,*6D
1514613694.66,46051,4.63,72214.5,-17.95,-18.93,-18.93,0,*6C
1514613695.94,46052,4.63,72212.8,-17.93,-18.89,-18.89,0,*69
1514613697.21,46053,4.63,72212.0,-17.95,-18.93,-18.93,0,*6E
1514613698.45,46054,4.63,72210.8,-17.95,-19.03,-18.93,0,*61
1514613699.69,46055,4.56,72210.3,-17.95,-19.03,-18.93,0,*60
1514613700.95,46056,4.56,72208.3,-17.95,-18.93,-18.93,0,*6B
1514613702.22,46057,4.63,72210.0,-17.95,-18.93,-18.93,0,*6A
1514613703.46,46058,4.63,72208.0,-17.95,-19.03,-18.93,0,*6D
1514613704.73,46059,4.63,72206.8,-17.95,-18.93,-18.93,0,*64
1514613705.97,46060,4.63,72208.0,-17.95,-19.03,-18.93,0,*66
1514613707.21,46061,4.56,72206.5,-17.95,-19.03,-18.93,0,*67
1514613708.42,46062,4.56,72204.8,-17.95,-19.03,-19.03,0,*6C
1514613709.66,46063,4.63,72210.3,-17.95,-19.03,-18.93,0,*65
1514613710.93,46064,4.63,72210.3,-17.95,-18.93,-18.93,0,*6A
1514613712.2,46065,4.56,72206.3,-17.95,-18.93,-18.93,0,*6B
1514613713.43,46066,4.63,72210.0,-17.95,-19.03,-18.93,0,*60
1514613714.67,46067,4.56,72210.3,-17.95,-19.03,-18.93,0,*61
1514613715.94,46068,4.63,72214.0,-17.97,-18.93,-19.03,0,*6C
1514613717.23,46069,4.63,72210.8,-17.97,-18.93,-18.93,0,*65
1514613718.47,46070,4.63,72214.8,-17.95,-19.03,-18.93,0,*67
1514613719.77,46071,4.56,72210.8,-17.97,-18.93,-18.93,0,*6C
1514613720.98,46072,4.56,72210.3,-17.99,-19.07,-18.99,0,*67
1514613722.25,46073,4.56,72208.0,-17.97,-19.03,-18.93,0,*66
1514613723.54,46074,4.63,72210.8,-17.97,-18.93,-18.93,0,*69
1514613724.75,46075,4.63,72208.5,-17.99,-19.07,-19.07,0,*66
1514613726.02,46076,4.63,72212.8,-17.97,-18.93,-19.03,0,*63
1514613727.26,46077,4.63,72214.3,-17.95,-19.03,-18.93,0,*60
1514613728.49,46078,4.56,72208.3,-17.97,-19.03,-19.03,0,*65
1514613729.73,46079,4.56,72208.5,-17.97,-19.03,-19.03,0,*64
1514613730.96,46080,4.63,72214.5,-17.97,-19.03,-19.03,0,*62
1514613732.26,46081,4.56,72210.3,-17.97,-18.93,-18.93,0,*63
1514613733.49,46082,4.56,72210.3,-17.97,-19.03,-19.03,0,*60
1514613734.7,46083,4.63,72214.8,-17.99,-18.99,-19.07,0,*69
1514613735.91,46084,4.63,72214.0,-17.99,-18.99,-19.07,0,*6E
1514613737.15,46085,4.63,72212.0,-17.97,-19.03,-19.07,0,*63
1514613738.35,46086,4.56,72210.5,-17.99,-19.03,-19.03,0,*6A
1514613739.56,46087,4.56,72208.5,-17.95,-19.03,-19.03,0,*67
1514613740.78,46088,4.63,72208.8,-17.99,-19.13,-19.07,0,*61
1514613742.05,46089,4.63,72210.3,-17.97,-19.07,-18.93,0,*67
1514613743.26,46090,4.63,72212.0,-17.99,-19.13,-19.07,0,*68
1514613744.5,46091,4.63,72212.3,-17.97,-19.03,-19.03,0,*62
1514613745.71,46092,4.63,72210.8,-17.99,-18.99,-19.07,0,*69
1514613746.92,46093,4.63,72210.0,-17.99,-18.99,-19.07,0,*68
1514613748.14,46094,4.63,72212.5,-17.99,-19.13,-19.13,0,*69
1514613749.38,46095,4.56,72208.0,-17.97,-19.07,-19.03,0,*62
1514613750.62,46096,4.56,72208.3,-17.99,-19.23,-19.07,0,*6D
1514613751.86,46097,4.56,72208.8,-17.99,-19.23,-19.07,0,*6C
1514613753.08,46098,4.63,72214.0,-17.99,-19.13,-19.13,0,*65
1514613754.33,46099,4.56,72208.8,-17.99,-19.23,-19.13,0,*67
1514613755.58,46100,4.56,72210.3,-17.99,-19.23,-19.13,0,*66
1514613756.81,46101,4.56,72208.3,-17.97,-19.07,-19.07,0,*6A
1514613758.06,46102,4.63,72214.5,-17.99,-19.23,-19.13,0,*64
1514613759.29,46103,4.56,72210.8,-17.99,-19.13,-19.13,0,*66
1514613760.53,46104,4.63,72210.0,-17.99,-19.23,-19.13,0,*62
1514613761.78,46105,4.63,72216.5,-17.99,-19.23,-19.13,0,*63
1514613763.03,46106,4.56,72212.5,-17.97,-19.17,-19.17,0,*6D
1514613764.27,46107,4.63,72212.3,-17.97,-19.17,-19.07,0,*6D
1514613765.54,46108,4.63,72214.5,-18.01,-19.23,-19.13,0,*60
1514613766.78,46109,4.63,72212.5,-18.01,-19.13,-19.07,0,*67
1514613767.99,46110,4.63,72214.0,-17.99,-19.13,-19.07,0,*61
1514613769.26,46111,4.56,72210.5,-18.01,-19.23,-18.99,0,*6B
1514613770.51,46112,4.56,72210.3,-18.01,-19.13,-19.13,0,*68
1514613771.74,46113,4.63,72214.3,-18.01,-19.13,-19.07,0,*6C
1514613772.98,46114,4.63,72214.8,-18.01,-19.13,-19.07,0,*6B
1514613774.24,46115,4.56,72212.8,-18.01,-19.23,-19.07,0,*69
1514613775.49,46116,4.63,72214.0,-18.05,-19.17,-19.03,0,*6D
1514613776.73,46117,4.63,72212.0,-18.01,-19.13,-19.07,0,*68
1514613777.96,46118,4.56,72210.5,-18.01,-18.99,-19.07,0,*64
1514613779.19,46119,4.56,72206.5,-18.01,-19.07,-19.07,0,*63
1514613780.44,46120,4.63,72208.3,-18.05,-19.13,-19.03,0,*6C
1514613781.68,46121,4.63,72208.0,-18.01,-19.13,-18.99,0,*6B
1514613782.9,46122,4.56,72208.8,-17.99,-19.13,-19.07,0,*60
1514613784.15,46123,4.63,72210.0,-18.05,-19.17,-19.13,0,*6A
1514613785.38,46124,4.56,72204.3,-18.01,-19.07,-19.07,0,*6D
1514613786.63,46125,4.56,72206.3,-18.05,-19.13,-19.03,0,*69
1514613787.89,46126,4.63,72210.8,-18.05,-19.13,-19.13,0,*6B
1514613789.13,46127,4.63,72208.3,-18.05,-19.17,-19.03,0,*6F
1514613790.38,46128,4.63,72208.5,-18.05,-19.17,-19.03,0,*60
1514613791.61,46129,4.63,72210.0,-18.01,-19.07,-18.99,0,*66
1514613792.87,46130,4.56,72208.3,-18.01,-19.23,-19.07,0,*6E
1514613794.11,46131,4.63,72210.8,-18.01,-19.07,-18.99,0,*6F
1514613795.36,46132,4.63,72210.0,-18.05,-19.17,-19.13,0,*6A
1514613796.62,46133,4.56,72206.5,-18.05,-19.13,-19.13,0,*6F
1514613797.87,46134,4.63,72210.3,-18.01,-19.13,-19.13,0,*6C
1514613799.11,46135,4.56,72204.3,-18.05,-19.17,-19.03,0,*6C
1514613800.37,46136,4.56,72210.3,-18.05,-19.17,-19.13,0,*6E
1514613801.62,46137,4.63,72212.0,-18.05,-19.17,-19.13,0,*6F
1514613802.87,46138,4.63,72214.0,-18.05,-19.17,-19.13,0,*60
1514613804.13,46139,4.56,72210.0,-18.05,-19.17,-19.13,0,*61
1514613805.38,46140,4.56,72210.8,-18.05,-19.13,-19.13,0,*6B
1514613806.64,46141,4.56,72208.5,-18.07,-19.27,-19.13,0,*6F
1514613807.87,46142,4.56,72210.3,-18.07,-19.17,-19.17,0,*6B
1514613809.11,46143,4.56,72208.0,-18.01,-19.13,-19.07,0,*69
1514613810.36,46144,4.56,72204.5,-18.05,-19.17,-19.03,0,*6A
1514613811.64,46145,4.63,72208.8,-18.05,-19.27,-19.17,0,*6D
1514613812.9,46146,4.63,72208.0,-18.07,-19.27,-19.13,0,*68
1514613814.13,46147,4.63,72206.8,-18.07,-19.17,-19.13,0,*6A
1514613815.36,46148,4.63,72206.3,-18.07,-19.13,-19.03,0,*60
1514613816.61,46149,4.56,72208.8,-18.05,-19.13,-19.13,0,*62
1514613817.84,46150,4.63,72214.0,-18.07,-19.17,-19.13,0,*6C
1514613819.07,46151,4.63,72214.5,-18.07,-19.17,-19.13,0,*6D
1514613820.3,46152,4.56,72208.0,-18.07,-19.17,-19.13,0,*6E
1514613821.53,46153,4.63,72212.5,-18.07,-19.17,-19.17,0,*6B
1514613822.76,46154,4.63,72214.3,-18.07,-19.17,-19.17,0,*6C
1514613823.99,46155,4.63,72214.0,-18.07,-19.17,-19.17,0,*6D
1514613825.24,46156,4.56,72208.8,-18.07,-19.27,-19.03,0,*68
1514613826.47,46157,4.56,72208.0,-18.07,-19.17,-19.13,0,*6B
1514613827.73,46158,4.56,72206.8,-18.07,-19.27,-19.17,0,*63
1514613828.96,46159,4.63,72210.3,-18.07,-19.17,-19.17,0,*61
1514613830.19,46160,4.56,72206.8,-18.07,-19.17,-19.17,0,*6B
1514613831.46,46161,4.63,72208.3,-18.09,-19.23,-19.07,0,*62
1514613832.69,46162,4.56,72204.8,-18.07,-19.17,-19.17,0,*69
1514613833.92,46163,4.63,72206.3,-18.07,-19.17,-19.17,0,*68
1514613835.14,46164,4.63,72206.0,-18.07,-19.17,-19.13,0,*6B
1514613836.42,46165,4.56,72204.3,-18.09,-19.23,-19.17,0,*67
1514613837.69,46166,4.56,72204.5,-18.09,-19.23,-19.17,0,*64
1514613838.94,46167,4.63,72204.3,-18.07,-19.23,-19.03,0,*6E
1514613840.18,46168,4.56,72196.8,-18.09,-19.17,-19.07,0,*6C
1514613841.41,46169,4.56,72200.3,-18.07,-19.13,-19.17,0,*66
1514613842.64,46170,4.63,72206.0,-18.07,-19.17,-19.13,0,*6E
1514613843.87,46171,4.63,72204.5,-18.07,-19.17,-19.13,0,*6F
1514613845.12,46172,4.56,72206.8,-18.09,-19.07,-19.17,0,*67
1514613846.35,46173,4.63,72206.8,-18.07,-19.13,-19.13,0,*69
1514613847.58,46174,4.63,72204.3,-18.07,-19.17,-19.13,0,*6A
1514613848.8,46175,4.63,72206.8,-18.07,-19.17,-19.03,0,*6A
1514613850.03,46176,4.56,72204.0,-18.07,-19.13,-19.03,0,*6D
1514613851.26,46177,4.63,72210.5,-18.07,-19.13,-19.13,0,*6D
1514613852.51,46178,4.63,72208.5,-18.09,-19.17,-19.17,0,*6C
1514613853.73,46179,4.63,72204.8,-18.07,-19.13,-19.03,0,*62
1514613854.95,46180,4.63,72208.3,-18.07,-19.03,-19.03,0,*65
1514613856.2,46181,4.63,72210.8,-18.09,-19.17,-19.17,0,*6A
1514613857.45,46182,4.63,72210.5,-18.09,-19.17,-19.17,0,*69
1514613858.69,46183,4.56,72204.0,-18.09,-19.17,-19.07,0,*69
1514613859.93,46184,4.63,72206.3,-18.09,-19.17,-19.07,0,*6E
1514613861.14,46185,4.56,72204.5,-18.07,-19.03,-19.03,0,*60
1514613862.38,46186,4.63,72206.3,-18.09,-19.07,-19.07,0,*6D
1514613863.61,46187,4.63,72204.5,-18.09,-19.07,-19.07,0,*6C
1514613864.85,46188,4.63,72206.0,-18.09,-19.07,-19.07,0,*63
1514613866.08,46189,4.63,72204.3,-18.09,-19.07,-19.07,0,*62
1514613867.32,46190,4.56,72204.3,-18.09,-19.07,-19.07,0,*6A
1514613868.55,46191,4.56,72206.0,-18.09,-19.07,-19.07,0,*6B
1514613869.79,46192,4.63,72210.0,-18.09,-19.07,-19.03,0,*6C
1514613871.03,46193,4.63,72210.3,-18.09,-19.07,-19.03,0,*6D
1514613872.27,46194,4.56,72208.3,-18.09,-19.17,-19.03,0,*6B
1514613873.51,46195,4.56,72208.5,-18.09,-19.07,-19.03,0,*6B
1514613874.75,46196,4.63,72212.0,-18.09,-19.07,-19.03,0,*68
1514613875.99,46197,4.56,72204.3,-18.09,-19.07,-19.03,0,*69
1514613877.23,46198,4.56,72210.0,-18.09,-19.17,-19.03,0,*67
1514613878.47,46199,4.56,72208.5,-18.09,-19.17,-19.07,0,*62
1514613879.7,46200,4.63,72212.5,-18.09,-19.07,-19.07,0,*60
1514613880.95,46201,4.56,72208.5,-18.09,-19.07,-19.17,0,*60
1514613882.18,46202,4.56,72206.0,-18.09,-19.07,-19.07,0,*62
1514613883.42,46203,4.63,72210.0,-18.09,-19.17,-19.07,0,*62
1514613884.64,46204,4.63,72210.0,-18.07,-19.03,-19.03,0,*6A
1514613885.87,46205,4.56,72208.5,-18.09,-19.07,-19.07,0,*65
1514613887.11,46206,4.63,72212.3,-18.09,-19.07,-19.07,0,*66
1514613888.34,46207,4.56,72212.3,-18.09,-19.07,-19.07,0,*67
1514613889.58,46208,4.56,72216.0,-18.09,-19.07,-19.07,0,*68
1514613890.82,46209,4.56,72214.8,-18.09,-19.17,-19.07,0,*68
1514613892.06,46210,4.56,72212.8,-18.09,-19.17,-19.07,0,*60
1514613893.3,46211,4.56,72214.8,-18.09,-19.17,-19.07,0,*61
1514613894.55,46212,4.56,72208.3,-18.09,-19.17,-19.17,0,*63
1514613895.79,46213,4.56,72210.0,-18.09,-19.07,-19.17,0,*63
1514613897.03,46214,4.63,72214.5,-18.09,-19.07,-19.07,0,*65
1514613898.27,46215,4.56,72208.8,-18.09,-19.17,-19.07,0,*65
1514613899.5,46216,4.63,72214.5,-18.09,-19.07,-19.07,0,*67
1514613900.74,46217,4.56,72210.8,-18.09,-19.07,-19.07,0,*66
1514613901.97,46218,4.56,72208.0,-18.09,-19.07,-19.07,0,*69
1514613903.21,46219,4.63,72214.5,-18.09,-19.07,-19.07,0,*68
1514613904.45,46220,4.56,72208.8,-18.09,-19.17,-19.07,0,*63
1514613905.69,46221,4.63,72210.5,-18.09,-19.17,-19.07,0,*62
1514613906.92,46222,4.56,72208.0,-18.09,-19.07,-19.07,0,*60
1514613908.16,46223,4.63,72208.0,-18.09,-19.07,-19.03,0,*65
1514613909.4,46224,4.56,72206.0,-18.09,-19.07,-19.03,0,*62
1514613910.63,46225,4.63,72210.0,-18.09,-19.07,-19.03,0,*63
1514613911.88,46226,4.63,72214.5,-18.09,-19.17,-19.03,0,*61
1514613913.12,46227,4.56,72212.3,-18.09,-19.07,-19.03,0,*61
1514613914.33,46228,4.63,72214.0,-18.07,-19.03,-18.99,0,*66
1514613915.55,46229,4.63,72210.0,-18.07,-19.03,-18.99,0,*67
1514613916.79,46230,4.63,72212.8,-18.09,-19.07,-19.03,0,*67
1514613918.02,46231,4.63,72214.0,-18.09,-19.07,-19.03,0,*66
1514613919.26,46232,4.63,72212.5,-18.09,-19.07,-19.03,0,*65
1514613920.5,46233,4.63,72212.3,-18.09,-19.07,-19.03,0,*64
1514613921.73,46234,4.63,72210.3,-18.09,-19.03,-19.07,0,*63
1514613922.98,46235,4.56,72212.8,-18.09,-19.17,-19.03,0,*63
1514613924.19,46236,4.56,72210.8,-18.07,-19.03,-18.99,0,*69
1514613925.43,46237,4.63,72216.3,-18.09,-19.07,-19.03,0,*60
1514613926.67,46238,4.63,72212.5,-18.09,-19.07,-19.03,0,*6F
1514613927.91,46239,4.63,72214.3,-18.09,-19.07,-19.03,0,*6E
1514613929.14,46240,4.63,72214.3,-18.09,-19.07,-19.03,0,*60
1514613930.38,46241,4.63,72214.0,-18.09,-19.07,-19.03,0,*61
1514613931.62,46242,4.56,72214.0,-18.09,-19.07,-18.99,0,*60
1514613932.86,46243,4.56,72210.8,-18.09,-19.07,-19.03,0,*63
1514613934.1,46244,4.56,72210.8,-18.09,-19.07,-19.03,0,*64
1514613935.34,46245,4.56,72206.5,-18.09,-19.07,-19.03,0,*65
1514613936.57,46246,4.56,72206.0,-18.09,-19.07,-19.07,0,*62
1514613937.81,46247,4.63,72210.5,-18.09,-19.17,-19.07,0,*62
1514613939.04,46248,4.63,72210.3,-18.09,-19.07,-19.07,0,*6C
1514613940.28,46249,4.56,72206.5,-18.09,-19.07,-19.07,0,*6D
1514613941.51,46250,4.56,72208.8,-18.09,-19.07,-19.07,0,*65
1514613942.75,46251,4.63,72212.0,-18.09,-19.07,-19.03,0,*60
1514613943.99,46252,4.56,72206.8,-18.09,-19.03,-19.03,0,*67
1514613945.23,46253,4.63,72208.8,-18.09,-19.03,-19.03,0,*66
1514613946.46,46254,4.63,72206.3,-18.09,-19.07,-19.03,0,*65
1514613947.7,46255,4.63,72210.5,-18.09,-19.07,-19.03,0,*64
1514613948.94,46256,4.56,72204.3,-18.09,-19.07,-19.03,0,*67
1514613950.18,46257,4.63,72206.3,-18.09,-19.07,-19.03,0,*66
1514613951.42,46258,4.56,72204.8,-18.09,-19.07,-19.03,0,*69
1514613952.65,46259,4.63,72206.3,-18.09,-19.03,-19.03,0,*6C
1514613953.89,46260,4.56,72202.8,-18.09,-19.03,-19.03,0,*66
1514613955.13,46261,4.56,72204.3,-18.09,-19.07,-19.03,0,*63
1514613956.34,46262,4.56,72210.8,-18.11,-19.07,-19.03,0,*69
1514613957.58,46263,4.56,72212.5,-18.09,-19.07,-19.03,0,*61
1514613958.81,46264,4.56,72212.3,-18.09,-19.07,-19.07,0,*62
1514613960.05,46265,4.63,72214.5,-18.09,-19.07,-19.07,0,*63
1514613961.29,46266,4.63,72216.3,-18.09,-19.17,-19.07,0,*61
1514613962.52,46267,4.56,72212.0,-18.09,-19.07,-19.07,0,*61
1514613963.76,46268,4.63,72212.0,-18.09,-19.07,-19.07,0,*6E
1514613964.99,46269,4.56,72208.0,-18.09,-19.07,-19.07,0,*6F
1514613966.23,46270,4.56,72208.5,-18.09,-19.07,-19.07,0,*67
1514613967.46,46271,4.56,72206.8,-18.09,-19.07,-19.07,0,*66
1514613968.7,46272,4.63,72208.8,-18.09,-19.07,-19.07,0,*65
1514613969.93,46273,4.56,72206.8,-18.09,-19.07,-19.07,0,*64
1514613971.17,46274,4.63,72212.5,-18.09,-19.07,-19.03,0,*67
1514613972.41,46275,4.56,72210.3,-18.09,-19.07,-19.03,0,*66
1514613973.65,46276,4.63,72208.3,-18.09,-19.07,-19.03,0,*65
1514613974.88,46277,4.63,72202.0,-18.09,-19.07,-19.03,0,*64
1514613976.12,46278,4.63,72202.3,-18.09,-19.07,-19.03,0,*6B
1514613977.36,46279,4.63,72212.5,-18.09,-19.07,-19.03,0,*6A
1514613978.6,46280,4.63,72212.0,-18.09,-19.07,-19.03,0,*6C
1514613979.82,46281,4.63,72208.3,-18.07,-19.03,-18.99,0,*65
1514613981.05,46282,4.63,72206.8,-18.09,-19.07,-18.99,0,*6C
1514613982.29,46283,4.56,72202.0,-18.09,-19.07,-19.03,0,*6F
1514613983.51,46284,4.56,72206.5,-18.11,-19.07,-19.03,0,*61
1514613984.75,46285,4.63,72206.8,-18.09,-19.07,-19.03,0,*69
1514613985.98,46286,4.63,72206.8,-18.09,-19.07,-19.03,0,*6A
1514613987.22,46287,4.56,72202.3,-18.09,-19.07,-19.03,0,*6B
1514613988.46,46288,4.56,72204.5,-18.09,-19.07,-19.03,0,*64
1514613989.67,46289,4.63,72210.0,-18.11,-19.07,-19.03,0,*6C
1514613990.91,46290,4.56,72206.3,-18.09,-19.07,-19.03,0,*6D
1514613992.15,46291,4.56,72204.0,-18.09,-19.07,-19.03,0,*6C
1514613993.39,46292,4.63,72210.0,-18.09,-19.03,-19.03,0,*6B
1514613994.62,46293,4.56,72204.5,-18.09,-19.03,-19.07,0,*6E
1514613995.86,46294,4.63,72208.3,-18.09,-19.07,-19.03,0,*69
1514613997.1,46295,4.56,72206.3,-18.09,-19.07,-19.03,0,*68
1514613998.33,46296,4.56,72200.5,-18.09,-19.07,-19.03,0,*6B
1514613999.57,46297,4.56,72202.0,-18.09,-19.07,-19.03,0,*6A
1514614000.81,46298,4.63,72200.3,-18.09,-19.07,-19.03,0,*65
1514614002.05,46299,4.56,72196.5,-18.09,-19.07,-19.03,0,*64
1514614003.28,46300,4.63,72202.5,-18.09,-19.07,-19.07,0,*61
1514614004.52,46301,4.56,72196.5,-18.09,-19.07,-19.07,0,*60
1514614005.76,46302,4.56,72198.5,-18.09,-19.17,-19.07,0,*62
1514614006.97,46303,4.56,72200.5,-18.11,-19.07,-19.07,0,*6B
1514614008.18,46304,4.56,72204.8,-18.11,-19.07,-19.07,0,*6C
1514614009.42,46305,4.56,72208.8,-18.09,-19.07,-19.07,0,*64
1514614010.65,46306,4.63,72210.0,-18.09,-19.17,-19.07,0,*66
1514614011.89,46307,4.63,72210.0,-18.09,-19.07,-19.07,0,*66
1514614013.13,46308,4.56,72206.3,-18.09,-19.07,-19.07,0,*69
1514614014.36,46309,4.63,72212.0,-18.09,-19.07,-19.07,0,*68
1514614015.6,46310,4.56,72208.8,-18.09,-19.17,-19.07,0,*61
1514614016.84,46311,4.56,72210.5,-18.09,-19.17,-19.07,0,*60
1514614018.08,46312,4.56,72212.8,-18.09,-19.17,-19.07,0,*63
1514614019.31,46313,4.56,72212.0,-18.09,-19.07,-19.07,0,*63
1514614020.52,46314,4.63,72218.3,-18.11,-19.07,-19.07,0,*6D
1514614021.76,46315,4.63,72214.5,-18.09,-19.07,-19.07,0,*65
1514614023.0,46316,4.63,72214.8,-18.09,-19.07,-19.03,0,*62
1514614024.24,46317,4.56,72212.8,-18.09,-19.07,-19.03,0,*63
1514614025.45,46318,4.56,72212.0,-18.11,-19.07,-19.03,0,*65
1514614026.69,46319,4.63,72212.5,-18.09,-19.07,-19.03,0,*6D
1514614027.9,46320,4.63,72214.0,-18.11,-19.07,-19.03,0,*6E
1514614029.14,46321,4.63,72214.0,-18.09,-19.03,-18.99,0,*60
1514614030.35,46322,4.63,72214.3,-18.11,-19.03,-19.03,0,*68
1514614031.57,46323,4.56,72208.8,-18.11,-19.07,-19.03,0,*6D
1514614032.8,46324,4.56,72212.8,-18.09,-19.07,-19.03,0,*63
1514614034.04,46325,4.56,72218.5,-18.09,-19.07,-19.03,0,*62
1514614035.28,46326,4.56,72212.5,-18.09,-19.07,-19.03,0,*61
1514614036.5,46327,4.56,72214.8,-18.11,-19.07,-19.03,0,*69
1514614037.73,46328,4.56,72208.3,-18.09,-19.07,-19.07,0,*6B
1514614038.94,46329,4.56,72206.3,-18.11,-19.07,-19.07,0,*63
1514614040.18,46330,4.56,72208.5,-18.09,-19.03,-19.07,0,*66
1514614041.41,46331,4.63,72208.3,-18.09,-19.03,-19.07,0,*67
1514614042.62,46332,4.63,72212.5,-18.11,-19.03,-18.99,0,*6B
1514614043.83,46333,4.63,72212.0,-18.11,-19.03,-19.07,0,*6C
1514614045.04,46334,4.56,72214.3,-18.11,-19.03,-19.03,0,*6F
1514614046.28,46335,4.63,72218.0,-18.09,-19.03,-18.99,0,*65
1514614047.49,46336,4.63,72214.8,-18.11,-19.03,-19.03,0,*6D
1514614048.73,46337,4.63,72212.5,-18.09,-19.03,-19.03,0,*65
1514614049.94,46338,4.56,72214.3,-18.11,-19.03,-19.03,0,*63
1514614051.15,46339,4.56,72212.0,-18.11,-19.03,-19.03,0,*62
1514614052.37,46340,4.56,72212.3,-18.11,-18.99,-19.03,0,*6E
1514614053.58,46341,4.63,72214.8,-18.11,-19.03,-19.03,0,*6D
1514614054.79,46342,4.56,72210.0,-18.11,-19.03,-19.03,0,*6E
1514614056.01,46343,4.56,72212.3,-18.11,-19.07,-19.03,0,*6B
1514614057.25,46344,4.63,72214.5,-18.09,-19.07,-19.03,0,*65
1514614058.48,46345,4.63,72216.0,-18.09,-19.07,-19.03,0,*64
1514614059.72,46346,4.56,72212.0,-18.09,-19.07,-19.03,0,*67
1514614060.94,46347,4.56,72212.3,-18.11,-19.07,-19.03,0,*6F
1514614062.18,46348,4.56,72212.8,-18.09,-19.17,-19.07,0,*6C
1514614063.41,46349,4.63,72212.5,-18.09,-19.07,-19.07,0,*6C
1514614064.62,46350,4.63,72216.0,-18.11,-19.07,-19.07,0,*6D
1514614065.84,46351,4.56,72214.0,-18.11,-19.17,-19.07,0,*6D
1514614067.05,46352,4.56,72212.0,-18.11,-19.17,-19.07,0,*6E
1514614068.28,46353,4.63,72218.3,-18.11,-19.17,-19.17,0,*6E
1514614069.52,46354,4.63,72216.0,-18.09,-19.07,-19.07,0,*60
1514614070.76,46355,4.63,72218.8,-18.09,-19.17,-19.07,0,*60
1514614071.98,46356,4.63,72218.0,-18.11,-19.07,-19.17,0,*6A
1514614073.19,46357,4.63,72214.3,-18.11,-19.17,-19.07,0,*6B
1514614074.42,46358,4.63,72214.5,-18.11,-19.17,-19.17,0,*65
1514614075.64,46359,4.56,72214.3,-18.11,-19.17,-19.07,0,*65
1514614076.85,46360,4.56,72212.5,-18.11,-19.17,-19.07,0,*6F
1514614078.07,46361,4.56,72214.0,-18.11,-19.17,-19.07,0,*6E
1514614079.32,46362,4.63,72216.5,-18.09,-19.17,-19.17,0,*65
1514614080.53,46363,4.63,72214.8,-18.11,-19.17,-19.07,0,*6C
1514614081.75,46364,4.56,72212.0,-18.11,-19.17,-19.07,0,*6B
1514614082.97,46365,4.56,72212.8,-18.11,-19.07,-19.17,0,*6A
1514614084.19,46366,4.56,72208.8,-18.11,-19.17,-19.07,0,*69
1514614085.41,46367,4.63,72214.3,-18.11,-19.07,-19.17,0,*68
1514614086.62,46368,4.56,72214.8,-18.11,-19.07,-19.07,0,*66
1514614087.84,46369,4.56,72212.8,-18.11,-19.17,-19.07,0,*66
1514614089.05,46370,4.63,72216.0,-18.11,-19.07,-19.07,0,*6F
1514614090.3,46371,4.56,72214.3,-18.15,-19.13,-19.13,0,*6A
1514614091.52,46372,4.56,72212.3,-18.11,-19.17,-19.07,0,*6C
1514614092.75,46373,4.63,72214.0,-18.09,-19.07,-19.07,0,*65
1514614093.96,46374,4.63,72214.0,-18.11,-19.07,-19.07,0,*6B
1514614095.19,46375,4.56,72208.8,-18.11,-19.17,-19.17,0,*6A